{"data":{"norad_id":49138,"intl_designator":"2021-082J","name":"STARLINK-3058","alt_names":[],"object_type":"PAYLOAD","status":"ACTIVE","operator":null,"country":"US","launch_date":"2021-09-14","launch_site_code":"AFWTR","launch_vehicle":null,"mission":null,"orbit_class":"UNKNOWN","rcs_meters":null,"size_class":null,"mass_kg":null,"dimensions":null,"purposes":["comms"],"wikipedia_slug":null,"has_3d_model":false,"image_url":null,"decayed_at":null,"tle_current":{"epoch":"2026-05-25T03:41:56.454432Z","epoch_age_seconds":51882,"freshness":"FRESH","line1":"1 49138U 21082J   26145.15412563  .00000305  00000+0  33329-4 0  9994","line2":"2 49138  69.9991 101.6686 0003879 268.3568  91.7147 14.98338049257432","mean_motion":14.98338049,"eccentricity":0.0003879,"inclination_deg":69.9991,"raan_deg":101.6686,"arg_perigee_deg":268.3568,"mean_anomaly_deg":91.7147,"bstar":3.3329e-5,"rev_number":25743,"period_min":96.106482843512,"perigee_km":569.33503002004,"apogee_km":574.72697035458,"semimajor_km":6950.1680001873,"source":"CELESTRAK","updated_at":"2026-05-25T13:38:16.765866Z"}}}